Wind_Speed
77 78 79 80 81 82 83 83 83 83 84 85 86 86 85 84 82 81 83 85 87 88 88 89 89 89 90 91 92 93 94 96 97 98 100 101 103 104 105 106 107 108
79 80 81 81 82 82 83 83 83 84 85 86 87 88 88 88 87 86 87 88 89 90 90 91 91 91 92 93 94 96 97 99 100 101 102 104 105 106 107 108 109 111
79 79 80 80 80 81 82 83 84 85 86 87 88 89 90 90 90 90 91 90 90 90 91 91 91 92 94 95 96 98 100 101 102 103 105 107 108 108 109 110 112 113
82 81 80 79 79 80 82 84 85 87 88 89 89 90 90 91 92 93 94 94 94 94 94 94 94 95 96 97 99 101 102 104 105 107 109 110 111 111 112 113 114 115
85 84 82 81 81 81 81 83 85 87 89 90 91 91 91 91 92 94 96 97 98 99 99 98 98 98 99 100 102 104 106 108 109 111 113 113 114 115 115 116 116 117
90 89 88 86 85 85 85 86 87 89 90 91 92 93 94 94 96 97 98 100 101 102 102 102 102 103 104 105 107 108 110 112 114 115 116 117 118 118 118 118 118 119
94 94 94 92 91 90 90 91 92 93 94 95 95 96 97 98 99 100 101 102 103 104 104 105 107 108 109 110 111 113 114 116 117 119 119 120 120 120 119 119 119 119
97 98 98 97 96 95 95 95 96 97 98 98 98 99 100 102 103 103 104 105 106 106 107 109 110 111 112 113 114 115 117 118 119 120 121 122 122 121 121 120 120 120
101 101 102 102 102 101 101 101 101 101 100 101 102 103 104 106 107 107 107 108 109 109 110 112 112 113 114 115 116 117 118 120 121 122 122 123 122 122 121 121 121 121
103 105 106 106 106 106 106 106 105 104 104 104 106 107 108 109 110 110 111 111 112 113 113 114 115 116 116 117 118 119 120 121 123 123 123 123 122 122 121 121 121 121
104 106 108 109 110 110 110 110 109 108 108 109 110 111 111 112 113 114 114 114 115 116 117 118 118 119 119 119 120 121 122 123 124 124 123 123 122 122 121 121 120 120
105 107 109 111 112 113 113 113 112 112 112 114 114 114 115 115 116 117 118 118 118 119 120 121 121 122 122 122 123 123 124 124 124 123 123 122 122 121 120 120 119 119
105 107 109 111 112 113 114 114 114 114 115 116 117 117 118 118 119 120 120 120 120 121 121 122 123 123 124 124 125 125 125 124 123 123 122 121 119 118 118 118 118 118
104 106 107 108 110 112 114 115 117 117 118 119 120 120 120 120 121 121 121 122 122 122 122 122 123 124 125 125 126 125 124 123 122 121 119 118 117 116 117 117 116 115
103 104 105 106 106 107 109 111 113 115 117 118 119 120 120 120 121 122 122 123 123 123 124 124 124 125 125 125 124 122 121 120 119 117 116 115 115 115 116 115 114 112
102 103 104 105 106 107 107 108 109 110 111 113 115 116 116 117 118 119 120 121 121 122 123 123 123 123 123 121 120 119 118 117 115 114 113 113 113 114 114 113 111 108
104 106 107 108 110 111 112 112 111 111 111 112 112 113 114 115 115 116 116 117 118 118 119 119 119 119 118 117 116 115 114 113 112 111 111 111 112 112 112 110 107 104
109 110 112 115 116 118 118 118 117 115 113 111 112 113 113 113 113 113 114 114 115 116 117 117 116 116 114 113 112 112 111 110 110 109 110 110 110 110 108 106 103 100
116 118 119 121 122 123 123 123 121 118 115 112 111 111 111 111 111 111 111 112 113 115 115 115 114 112 111 110 109 109 108 108 108 108 108 108 108 107 105 102 100 97
122 123 123 123 122 122 122 122 121 120 118 115 114 113 112 112 111 111 111 111 112 113 113 112 110 109 108 107 106 106 106 106 106 107 107 106 105 103 101 99 97 95
121 121 120 119 118 117 117 118 118 118 118 117 117 116 116 115 115 114 114 114 114 113 111 109 108 107 105 105 105 105 105 105 105 105 104 103 101 99 96 95 94 93
116 116 116 115 114 114 114 114 115 115 116 116 117 116 116 116 116 116 115 115 114 111 109 107 106 105 103 103 104 104 103 103 103 102 101 99 97 95 93 93 92 92
112 112 112 112 112 111 111 112 112 112 113 114 114 114 114 114 114 115 114 114 112 109 107 105 104 102 102 102 102 102 101 101 100 98 96 95 94 93 93 92 91 91
107 108 108 108 108 109 109 109 109 109 110 111 111 111 111 111 112 112 112 111 109 106 104 103 101 100 100 99 99 99 99 98 97 95 94 93 93 93 93 93 92 91
105 105 106 106 106 107 107 107 107 107 107 108 108 107 108 108 110 111 111 109 107 104 102 100 98 98 97 97 97 97 96 96 95 95 94 94 94 94 94 93 93 92
103 103 104 105 105 105 106 106 106 106 105 105 105 105 106 107 108 110 110 108 105 102 100 98 97 96 96 96 96 96 96 96 96 95 95 95 95 95 95 95 94 93
Wind_Direction
277 277 277 278 279 280 280 280 280 281 281 280 280 280 279 279 277 276 276 277 277 278 279 280 280 280 280 280 281 282 283 284 285 286 287 288 288 289 289 289 289 290
276 276 276 277 278 279 279 280 280 280 280 280 280 280 280 279 279 278 277 277 277 277 278 279 279 279 280 280 281 282 283 284 286 287 287 288 288 289 289 289 289 290
276 275 276 276 277 277 279 279 280 280 280 280 280 279 279 280 280 279 278 277 277 277 278 279 279 279 280 280 281 283 284 285 286 287 288 288 289 289 289 289 289 289
276 276 275 275 276 276 278 279 279 280 280 280 279 279 280 280 280 280 280 279 279 279 278 279 279 279 280 281 282 283 284 285 286 287 287 288 288 288 288 288 288 288
275 275 274 274 274 275 276 277 278 278 279 279 279 280 280 280 280 280 280 281 281 281 281 280 280 280 280 281 282 282 283 284 285 286 287 287 287 287 287 287 287 287
273 273 273 272 273 273 274 275 276 276 277 277 278 279 279 279 279 279 280 280 281 281 281 281 281 281 281 281 282 282 283 284 285 286 286 287 287 287 287 287 287 287
271 271 271 271 271 272 272 273 274 274 274 275 276 277 278 278 278 279 279 279 279 279 279 280 280 280 281 281 282 283 283 284 285 286 286 287 288 288 288 288 288 288
270 271 271 271 270 271 271 272 272 272 273 274 275 275 276 277 278 278 278 278 278 278 278 278 279 279 280 281 282 283 283 284 285 286 287 287 288 288 289 289 289 289
269 270 270 270 270 271 271 271 271 271 272 273 273 274 275 276 277 277 277 277 278 278 278 278 278 279 280 280 281 282 283 284 285 286 286 287 288 288 289 289 289 289
268 268 269 270 270 270 270 270 270 271 271 272 272 273 273 274 275 276 276 277 277 277 278 278 278 279 279 280 281 282 282 283 284 285 286 287 288 289 289 289 289 289
266 267 268 269 269 270 270 270 270 270 271 271 271 272 272 273 274 274 275 275 276 276 276 277 277 278 279 279 280 281 281 282 283 284 286 287 288 289 288 288 288 288
266 266 266 267 268 269 269 270 270 270 270 270 270 271 271 271 272 273 273 273 274 274 275 275 276 277 277 278 279 280 281 282 284 285 287 288 288 288 287 287 287 287
266 265 265 266 266 267 268 269 269 270 270 269 270 270 270 270 271 271 272 272 272 273 273 274 275 276 277 278 279 280 282 283 285 286 287 287 287 286 286 286 286 287
267 266 266 266 267 267 268 268 269 269 270 270 270 270 271 271 271 272 272 273 273 273 274 275 276 277 278 279 280 282 284 285 286 286 286 286 285 285 285 285 286 287
267 267 268 269 269 269 269 269 269 269 270 270 271 271 272 272 272 273 273 274 274 275 276 276 277 278 279 281 282 284 285 286 286 285 285 285 285 285 285 285 286 287
272 272 272 272 273 273 273 272 271 271 271 271 271 272 272 273 273 274 274 275 275 276 276 277 278 279 280 282 283 284 285 285 285 285 285 285 285 285 285 286 287 288
276 276 277 277 277 277 277 277 276 275 275 275 275 274 274 274 274 275 276 276 276 277 277 278 279 280 281 282 283 283 284 284 284 285 285 285 285 285 286 287 288 288
277 278 279 279 280 280 281 280 280 280 279 279 278 277 277 277 276 276 276 275 276 276 277 278 279 280 281 282 283 283 284 284 285 285 285 285 285 285 286 287 288 288
276 277 278 279 280 280 281 282 282 282 282 281 280 280 279 279 279 278 277 277 277 277 277 278 280 281 282 283 283 284 284 285 285 285 285 285 285 286 287 287 287 286
275 276 276 277 277 278 279 280 280 281 282 282 282 282 282 282 282 281 281 281 280 280 280 281 282 282 283 284 284 285 285 285 285 285 285 285 286 286 286 286 285 284
273 274 274 275 276 276 277 277 278 279 280 281 282 282 282 283 283 283 283 282 282 282 282 283 283 284 284 285 285 285 285 285 285 285 285 285 285 285 285 284 283 283
271 272 273 274 275 275 275 276 276 277 278 279 280 280 281 281 282 282 282 282 282 283 283 284 284 285 285 285 285 285 285 285 285 285 285 285 284 284 283 283 283 284
270 271 272 273 274 275 275 275 276 276 277 277 278 279 279 280 281 281 281 282 282 283 284 284 284 285 285 285 285 285 285 285 284 284 284 284 284 284 283 284 284 285
271 271 272 273 274 274 274 274 275 275 276 276 277 278 279 279 280 280 281 281 282 283 284 284 285 285 285 285 285 284 284 284 284 284 284 284 284 285 285 286 286 287
271 272 272 273 273 273 273 274 274 274 275 275 277 278 279 279 280 280 280 281 282 283 283 284 284 284 284 284 284 283 284 284 284 284 284 285 285 286 287 288 288 289
271 271 271 272 272 273 273 273 273 274 275 276 277 277 278 278 278 279 280 280 281 282 283 283 283 283 283 283 283 283 283 283 284 284 285 286 287 288 289 289 290 290
Height
10611 10608 10605 10603 10601 10598 10597 10595 10593 10591 10589 10587 10586 10585 10586 10587 10589 10590 10588 10584 10581 10579 10577 10575 10573 10571 10569 10566 10564 10562 10559 10557 10554 10551 10548 10545 10543 10540 10538 10535 10532 10530
10601 10599 10597 10595 10593 10590 10587 10585 10583 10581 10578 10576 10574 10573 10572 10573 10574 10576 10575 10573 10570 10568 10566 10564 10562 10559 10557 10554 10552 10550 10547 10544 10541 10538 10534 10531 10529 10526 10523 10521 10518 10515
10590 10590 10588 10586 10584 10582 10578 10575 10573 10571 10568 10565 10563 10561 10560 10559 10560 10560 10559 10559 10558 10557 10555 10552 10550 10547 10544 10542 10539 10536 10533 10530 10527 10524 10521 10518 10515 10512 10509 10506 10503 10501
10579 10579 10579 10576 10574 10573 10570 10567 10564 10561 10558 10555 10552 10550 10549 10548 10547 10545 10543 10542 10542 10542 10542 10540 10538 10535 10532 10529 10526 10523 10520 10517 10514 10510 10507 10504 10501 10499 10496 10493 10489 10487
10568 10568 10567 10566 10564 10563 10562 10558 10554 10551 10548 10544 10541 10539 10539 10538 10536 10533 10530 10528 10526 10525 10525 10525 10524 10522 10519 10516 10513 10510 10507 10504 10501 10497 10493 10491 10488 10486 10482 10479 10476 10472
10557 10555 10555 10555 10554 10553 10552 10549 10545 10542 10538 10534 10532 10530 10528 10526 10524 10522 10519 10517 10515 10512 10510 10508 10507 10505 10503 10502 10499 10497 10494 10490 10487 10483 10479 10477 10474 10471 10468 10465 10461 10457
10545 10543 10542 10542 10542 10541 10540 10538 10535 10531 10527 10525 10524 10520 10516 10513 10511 10509 10507 10506 10503 10501 10499 10496 10493 10491 10489 10487 10484 10481 10479 10475 10472 10468 10464 10462 10459 10456 10453 10450 10446 10442
10530 10530 10529 10529 10528 10528 10527 10525 10522 10519 10516 10515 10514 10509 10505 10501 10498 10496 10494 10492 10490 10488 10486 10483 10480 10478 10476 10473 10470 10467 10464 10461 10457 10454 10450 10447 10444 10442 10439 10435 10431 10427
10516 10515 10514 10513 10513 10512 10511 10508 10507 10506 10505 10504 10500 10497 10493 10488 10484 10482 10480 10478 10476 10474 10471 10468 10466 10465 10462 10460 10457 10454 10451 10447 10444 10440 10437 10434 10431 10427 10424 10420 10416 10412
10501 10499 10497 10497 10496 10495 10493 10491 10491 10492 10492 10490 10485 10482 10479 10475 10471 10469 10467 10465 10462 10459 10456 10454 10452 10449 10448 10446 10443 10440 10437 10434 10431 10428 10425 10421 10417 10413 10409 10405 10401 10396
10485 10483 10481 10480 10478 10476 10474 10474 10475 10477 10476 10473 10470 10467 10464 10461 10458 10455 10453 10451 10448 10445 10442 10439 10437 10435 10433 10431 10428 10426 10424 10421 10418 10416 10412 10408 10403 10398 10394 10389 10385 10381
10469 10467 10465 10462 10460 10458 10457 10457 10458 10459 10457 10454 10452 10450 10448 10446 10443 10440 10437 10436 10434 10431 10427 10424 10422 10420 10419 10417 10414 10412 10410 10408 10405 10402 10398 10393 10388 10383 10378 10374 10370 10366
10452 10450 10448 10446 10444 10442 10440 10439 10440 10439 10437 10435 10433 10432 10430 10428 10426 10423 10421 10419 10418 10415 10412 10409 10407 10406 10404 10402 10400 10399 10397 10394 10391 10386 10382 10377 10372 10367 10362 10358 10354 10351
10435 10433 10432 10432 10431 10429 10426 10424 10422 10421 10418 10416 10414 10413 10412 10410 10408 10406 10404 10402 10400 10398 10396 10394 10392 10390 10389 10386 10386 10384 10382 10379 10374 10370 10366 10360 10356 10351 10346 10343 10340 10336
10418 10418 10418 10417 10416 10414 10412 10410 10408 10406 10403 10399 10397 10395 10394 10393 10391 10388 10386 10385 10383 10381 10380 10378 10376 10374 10372 10371 10371 10369 10366 10362 10358 10353 10349 10344 10339 10335 10331 10327 10325 10323
10400 10401 10401 10400 10398 10396 10394 10393 10392 10390 10387 10384 10382 10380 10378 10376 10373 10371 10369 10368 10367 10365 10363 10362 10360 10359 10357 10357 10357 10354 10350 10346 10341 10337 10333 10328 10323 10319 10316 10314 10311 10309
10383 10382 10380 10380 10378 10376 10375 10374 10372 10371 10370 10368 10367 10365 10362 10359 10357 10356 10354 10352 10350 10349 10347 10346 10346 10344 10344 10344 10342 10338 10334 10329 10325 10322 10317 10312 10308 10304 10302 10300 10298 10295
10367 10364 10363 10362 10360 10358 10356 10354 10352 10351 10352 10351 10349 10347 10345 10343 10342 10340 10338 10336 10335 10334 10332 10331 10331 10330 10330 10329 10326 10321 10318 10313 10309 10306 10301 10296 10293 10290 10288 10286 10283 10281
10351 10349 10349 10347 10346 10344 10340 10338 10336 10335 10334 10333 10331 10329 10327 10326 10325 10323 10322 10321 10319 10317 10316 10315 10316 10315 10314 10313 10309 10305 10301 10298 10294 10290 10285 10282 10278 10276 10274 10272 10269 10267
10335 10333 10333 10333 10331 10330 10327 10325 10323 10321 10318 10316 10314 10312 10311 10309 10308 10307 10306 10304 10302 10300 10300 10301 10300 10299 10298 10297 10293 10289 10286 10282 10279 10275 10270 10268 10265 10262 10261 10258 10255 10253
10317 10316 10316 10317 10316 10315 10314 10312 10310 10307 10305 10302 10300 10298 10296 10294 10293 10291 10290 10287 10285 10284 10285 10286 10285 10283 10283 10281 10277 10273 10271 10267 10263 10260 10257 10254 10251 10249 10247 10244 10242 10240
10301 10301 10302 10302 10301 10301 10300 10298 10296 10294 10291 10289 10286 10284 10282 10280 10278 10276 10274 10271 10270 10270 10272 10271 10269 10268 10268 10265 10261 10258 10256 10252 10248 10245 10243 10241 10238 10236 10234 10231 10229 10226
10287 10287 10287 10287 10286 10286 10284 10282 10280 10279 10277 10275 10272 10270 10268 10266 10263 10260 10258 10256 10255 10257 10257 10255 10255 10254 10253 10249 10245 10242 10241 10238 10234 10231 10229 10227 10224 10222 10219 10217 10215 10212
10272 10272 10271 10271 10271 10270 10268 10267 10265 10264 10263 10260 10257 10255 10254 10252 10249 10245 10243 10242 10241 10242 10242 10241 10241 10240 10237 10234 10231 10228 10226 10224 10220 10217 10216 10213 10210 10207 10205 10202 10199 10197
10255 10255 10255 10255 10254 10253 10252 10251 10250 10248 10247 10245 10243 10242 10241 10237 10234 10231 10228 10227 10227 10228 10228 10228 10227 10225 10222 10219 10216 10214 10213 10210 10207 10204 10202 10199 10196 10193 10190 10187 10184 10182
10239 10240 10240 10239 10238 10237 10236 10235 10234 10233 10232 10232 10230 10228 10227 10224 10220 10217 10213 10212 10213 10214 10214 10214 10212 10211 10208 10205 10203 10202 10200 10197 10193 10191 10188 10185 10182 10179 10175 10172 10170 10167